Location: Newark
(41.6500°N, 71.4833°W)
Time: 15:21:40
(UTC+00:00)

A-11 Canister half - Pass Details

Date: 25 January 2020
Orbit: 1517 x 1683 km, 47.2° (Epoch: 26 February)

Event Time Altitude Azimuth Distance (km) Brightness Sun altitude
Rises 10:52:51 0° 297° (WNW) 4,665 - -13.5°
Reaches altitude 10° 10:55:58 10° 293° (WNW) 3,681 - -12.9°
Exits shadow 10:57:20 15° 290° (WNW) 3,270 10.1 -12.7°
Maximum altitude 11:04:48 52° 220° (SW) 1,841 9.3 -11.3°
Drops below altitude 10° 11:13:47 10° 147° (SSE) 3,737 11.8 -9.7°
Sets 11:16:59 0° 143° (SE) 4,739 12.6 -9.1°
